Theta_e
286 286 286 286 286 287 288 288 288 289 290 290 290 290 290 290 290 290 291 292 293 293 294 296 297 299 301 303 305 307 307 307 298 284 286 288 289 290 292 295 296 296 296
285 285 285 286 286 286 286 286 287 287 288 288 288 288 289 290 291 290 290 292 292 293 293 294 294 297 299 302 303 305 307 308 294 285 285 288 289 289 289 289 290 293 294
283 283 284 285 284 284 284 284 285 285 286 286 287 286 287 288 288 289 289 289 290 291 293 293 295 298 298 301 304 305 307 303 294 287 285 287 286 286 285 286 286 288 291
283 283 283 283 283 283 283 284 284 285 285 285 285 285 286 286 286 287 287 288 289 290 292 294 295 296 298 299 298 300 306 294 290 288 285 284 285 286 286 284 283 285 284
282 283 282 283 283 283 283 283 284 284 284 284 284 284 284 285 285 285 286 286 286 288 290 292 293 295 294 297 298 301 296 291 289 286 284 284 282 283 282 283 280 279 280
281 282 283 283 282 282 283 283 283 283 283 283 283 283 283 284 286 288 287 286 285 285 286 288 291 290 291 293 296 296 296 291 288 287 285 283 282 284 282 281 279 279 275
282 282 282 282 282 282 282 282 282 282 282 281 282 282 282 284 287 286 285 285 285 286 286 286 287 289 289 291 293 295 294 294 292 290 286 284 283 283 282 280 281 278 276
282 282 282 281 281 281 282 281 281 281 281 281 281 282 283 284 286 286 284 281 282 283 284 285 286 287 288 289 288 286 285 287 290 290 288 286 285 283 283 282 278 276 276
281 281 280 281 281 281 281 281 281 280 281 281 282 281 282 283 285 285 283 282 281 280 283 284 285 287 289 289 285 283 282 283 286 287 287 286 285 285 281 278 277 275 273
281 279 278 280 281 280 280 280 281 281 281 282 281 280 280 281 285 285 282 280 279 280 281 282 283 285 287 287 283 281 279 280 281 280 281 282 283 283 284 280 279 276 272
279 277 278 282 282 281 281 278 280 281 281 281 281 281 279 279 281 284 284 280 279 278 279 280 282 284 283 282 281 278 278 279 279 277 276 276 275 275 275 277 278 277 273
274 275 280 282 283 282 282 280 280 280 280 281 281 281 281 280 281 282 282 282 280 277 277 279 281 284 284 283 282 282 282 280 277 275 274 272 270 270 270 270 271 271 273
271 271 274 281 282 283 282 281 280 281 280 280 280 279 278 279 278 280 281 280 279 276 277 278 279 279 279 279 280 279 277 276 274 271 269 268 268 268 269 268 268 268 268
269 269 272 280 281 282 283 283 282 282 281 279 278 278 277 277 277 277 276 276 277 276 276 275 276 276 276 274 272 272 272 271 270 269 267 268 268 268 267 268 266 266 265
277 268 270 280 281 281 282 283 282 283 283 278 276 278 277 276 278 280 279 277 276 277 275 274 273 272 271 270 270 270 270 270 269 269 268 267 267 267 266 267 266 265 264
280 273 271 278 281 280 280 280 284 284 284 284 284 280 279 281 282 282 281 280 280 278 273 271 270 270 269 269 268 268 268 268 268 268 267 267 266 265 265 265 265 264 262
280 278 276 272 278 279 279 279 279 278 283 284 284 283 283 282 282 281 280 280 278 276 271 270 269 269 268 268 267 267 266 267 268 267 267 266 266 265 264 263 263 263 261
275 279 278 276 270 276 278 278 277 278 276 277 281 281 283 282 281 280 279 274 270 270 268 268 267 267 267 267 266 266 266 266 266 266 265 265 265 264 263 262 262 260 259
279 280 279 278 275 269 277 279 277 276 278 277 278 280 276 282 280 278 275 266 265 265 264 265 265 266 265 266 265 265 265 264 264 264 263 263 263 262 261 261 260 260 259
278 279 276 275 273 271 270 275 274 276 277 278 277 272 274 272 265 262 261 261 262 261 262 263 262 262 263 264 263 263 263 262 262 262 261 261 261 261 260 259 259 257 256
279 281 275 268 270 269 269 274 274 274 276 277 274 268 279 269 263 260 259 259 259 259 260 259 259 260 260 261 262 261 261 260 259 260 260 258 259 257 257 257 256 255 255
282 282 274 271 270 267 268 265 267 268 270 271 272 268 280 272 261 261 259 259 258 258 260 262 260 260 262 263 262 260 259 258 258 258 258 257 257 256 254 255 254 253 252
282 282 274 270 271 267 266 264 264 267 266 266 263 266 269 273 265 261 262 260 257 257 256 258 259 257 257 258 259 263 261 261 260 260 258 257 256 256 255 254 253 250 249
280 278 276 275 271 269 269 267 267 266 265 264 263 264 266 268 266 265 264 261 258 259 258 259 260 260 258 258 256 255 257 258 259 259 259 258 255 255 254 253 252 248 251
278 278 277 275 273 272 269 268 268 267 267 267 266 263 263 263 266 266 266 265 265 264 264 262 258 260 260 260 260 257 259 262 259 259 258 257 256 254 254 254 250 247 246
277 276 275 274 273 272 271 270 269 267 268 269 269 269 269 267 267 265 267 268 268 266 264 265 262 259 259 260 260 259 260 262 259 258 258 257 256 254 254 252 250 250 247
Wind_Speed
8 10 12 13 13 14 15 17 17 18 17 19 19 19 18 17 18 19 17 17 19 18 17 17 18 14 11 11 13 11 11 14 9 2 3 8 11 15 12 12 12 13 15
8 10 12 13 13 14 15 16 16 18 18 20 20 20 19 18 17 17 18 17 18 18 18 19 20 15 17 15 12 14 12 17 9 14 10 10 13 15 14 16 11 10 11
9 10 12 13 13 15 17 17 17 18 18 18 18 19 19 18 18 17 17 17 18 20 20 21 19 16 16 12 11 12 10 9 15 13 12 9 9 13 16 13 13 12 10
8 10 11 13 15 16 17 17 17 18 18 17 18 18 18 18 18 18 18 18 18 18 20 20 18 19 19 14 10 13 10 11 14 16 15 15 13 13 14 17 13 8 10
8 9 12 12 14 14 15 15 18 17 15 16 17 17 16 15 12 15 16 16 18 19 19 18 18 19 18 16 8 13 15 12 14 17 16 14 14 16 18 13 14 11 8
7 10 11 12 13 13 14 15 17 16 15 16 17 17 16 11 22 23 23 17 19 18 18 18 16 16 15 20 21 18 21 18 19 19 17 20 20 14 15 17 17 16 8
7 9 10 11 12 13 14 17 16 16 16 17 18 18 17 14 19 20 20 8 14 16 17 16 13 12 16 17 19 16 20 35 37 25 24 22 24 21 21 21 18 11 10
7 9 11 12 12 12 13 15 15 12 13 16 18 17 14 11 22 22 20 11 8 5 1 8 13 16 17 14 13 17 13 7 9 11 22 22 19 22 19 19 19 18 13
6 9 10 10 11 12 13 15 14 12 13 16 15 17 15 16 29 27 16 10 14 15 10 7 5 9 27 31 23 23 22 18 27 32 31 33 34 30 26 21 17 17 11
6 7 8 8 10 11 11 11 11 11 13 13 13 13 18 18 32 30 21 11 14 12 15 18 29 20 26 32 25 27 27 21 26 29 26 30 31 27 24 17 14 16 11
4 5 6 7 9 9 11 6 9 11 12 13 12 11 14 18 23 36 33 15 13 14 15 15 15 35 37 35 30 24 27 23 29 22 19 17 16 15 12 10 8 9 7
3 4 5 7 6 6 10 7 8 11 12 14 14 13 12 13 27 31 36 35 29 17 16 15 20 37 36 36 28 40 37 26 16 16 15 15 13 12 11 12 15 13 10
2 3 4 4 5 5 8 8 6 9 10 10 10 11 11 12 13 29 32 32 32 19 16 26 31 30 31 29 34 32 22 15 15 16 15 13 11 12 14 14 14 16 17
2 2 3 4 4 6 4 6 6 7 7 7 8 8 8 9 10 10 10 11 19 16 19 16 23 26 32 24 20 20 15 14 14 14 13 12 11 10 11 9 11 10 11
4 2 2 1 4 2 3 4 6 6 6 4 4 6 6 8 10 15 13 9 9 11 9 9 12 12 13 13 14 14 12 12 14 11 12 12 11 11 10 7 7 8 8
6 3 3 3 2 3 2 2 9 11 12 12 12 8 4 11 16 17 18 18 17 15 9 10 10 10 11 10 11 11 10 12 10 10 11 10 11 10 9 7 7 8 10
9 7 3 3 5 3 2 1 1 5 9 11 11 11 13 13 15 15 15 19 16 11 9 8 8 8 8 9 9 9 9 7 8 9 10 9 9 8 9 8 8 8 8
7 8 6 4 4 4 3 3 2 1 2 3 6 6 10 11 13 14 12 8 7 9 6 6 7 6 6 7 7 8 8 7 7 7 8 8 7 8 8 8 6 8 8
9 8 8 7 5 4 6 4 2 2 2 2 2 3 5 7 10 12 14 4 4 3 4 5 4 5 6 6 6 6 6 6 6 7 6 6 6 7 7 6 7 9 9
9 11 10 7 5 5 4 6 4 3 2 3 4 3 1 4 4 4 3 2 3 2 3 4 3 4 5 5 5 6 7 6 6 5 6 5 5 6 7 8 7 7 5
9 9 10 4 6 5 5 7 7 6 6 5 5 3 6 2 2 0 1 2 2 2 3 3 3 3 4 5 5 5 5 5 5 6 6 5 6 7 6 7 7 6 7
10 10 8 8 6 5 5 3 4 5 6 6 4 2 10 1 2 2 2 2 3 3 3 4 3 3 4 6 6 6 5 6 5 6 7 6 6 7 5 6 7 5 4
10 11 8 6 7 6 5 5 3 4 4 4 3 3 3 3 4 4 4 3 3 3 3 4 4 3 1 2 2 6 8 8 7 8 9 8 8 7 7 8 7 5 4
11 11 10 8 7 6 6 6 6 6 4 3 2 2 3 3 4 4 3 2 2 2 2 2 3 6 4 3 3 3 4 5 6 7 11 9 8 8 7 6 5 5 6
8 9 8 8 8 9 7 6 7 6 5 5 4 3 3 4 4 5 5 4 5 5 4 5 4 7 8 9 9 9 9 12 8 9 7 9 10 10 8 7 6 4 4
7 7 7 6 6 5 5 6 6 5 6 6 6 6 6 5 4 4 4 5 6 5 6 5 6 8 9 8 9 10 10 12 11 10 9 9 10 8 8 8 8 5 6
Wind_Direction
313 320 318 312 310 306 298 300 302 301 293 287 284 282 277 273 274 273 263 261 258 255 251 252 256 259 256 260 238 228 221 221 177 114 105 152 131 125 117 106 106 111 107
315 318 315 316 314 309 306 306 302 299 300 297 294 289 284 278 270 265 270 267 261 257 250 243 244 245 245 249 253 240 238 220 150 147 141 150 140 129 120 112 110 108 110
322 319 320 321 318 314 311 310 307 304 299 296 293 291 288 283 278 268 259 258 260 260 256 250 243 242 234 242 242 231 236 185 147 145 137 137 130 129 113 104 102 101 100
310 327 325 320 320 318 317 314 306 307 304 304 300 296 291 285 278 273 266 258 254 251 252 252 247 240 241 237 238 260 219 153 142 134 137 135 141 138 122 125 112 99 96
311 329 324 315 322 312 315 312 317 316 311 309 307 300 295 287 281 274 265 254 252 251 245 242 242 244 241 235 231 250 157 151 144 141 140 143 144 149 141 130 112 112 88
320 329 321 320 322 319 319 321 324 322 321 317 318 312 305 300 296 294 283 259 248 240 243 243 239 241 244 247 240 256 171 163 156 148 151 153 154 147 136 137 134 133 118
336 328 326 324 327 325 323 331 329 332 329 337 326 323 320 318 336 338 340 283 247 235 233 234 235 234 235 242 242 198 191 174 160 158 153 162 152 153 142 139 138 117 115
339 332 333 335 334 330 331 336 337 333 337 334 324 326 336 349 5 3 0 359 12 30 162 214 221 226 218 197 129 103 85 69 140 147 151 147 139 139 137 126 121 111 98
336 334 325 335 335 333 338 340 341 336 348 334 333 342 353 13 23 19 8 17 34 34 34 44 134 148 143 133 114 105 96 89 86 95 104 112 119 122 125 122 120 120 116
337 318 310 334 339 341 337 339 348 347 345 337 343 355 5 16 30 32 28 27 36 40 44 58 66 87 103 109 114 114 106 108 107 102 103 104 104 112 109 111 134 132 127
315 310 316 356 346 350 336 326 355 349 340 350 352 360 12 15 22 34 37 35 40 46 46 53 62 85 89 92 94 96 101 106 100 97 98 92 87 86 80 80 83 121 123
319 327 348 15 352 3 351 347 5 3 358 357 359 4 14 20 29 30 35 41 40 46 51 53 63 71 81 88 91 99 102 101 97 93 91 85 86 80 75 75 74 67 58
360 328 323 27 350 6 14 354 24 16 7 2 0 1 2 5 15 26 33 39 41 45 46 55 59 64 66 70 75 78 80 83 91 89 86 82 86 92 89 81 84 86 68
204 288 312 68 38 21 31 10 19 31 7 359 1 358 355 13 14 14 26 30 35 42 42 50 59 60 62 59 57 57 62 72 84 87 91 92 93 91 91 99 96 94 84
196 209 250 95 90 50 7 25 18 23 31 359 356 357 360 20 23 37 35 34 41 47 57 60 55 55 59 59 61 62 71 76 83 96 103 101 92 89 84 78 84 86 94
195 185 206 181 153 115 85 11 33 38 31 41 34 36 353 45 34 39 46 46 51 56 56 59 59 58 64 65 70 72 68 81 89 97 93 94 98 102 102 90 92 101 107
191 191 194 179 204 179 139 122 20 343 12 34 42 42 35 30 34 40 42 58 55 58 66 67 72 62 62 65 70 72 76 70 87 90 95 101 105 105 109 105 105 105 100
176 183 198 196 194 204 187 174 158 21 341 338 3 30 34 30 29 21 34 47 35 32 49 59 70 74 81 93 92 95 90 84 85 92 95 99 108 114 116 114 110 114 113
183 188 199 208 198 198 192 199 159 180 239 274 316 342 1 27 25 38 51 72 107 77 39 52 36 67 77 79 84 89 94 95 95 100 95 103 103 114 101 98 98 91 92
190 187 187 195 192 200 192 187 175 193 195 230 241 250 292 17 9 352 23 74 79 68 88 88 58 69 84 89 83 80 88 88 97 99 95 102 99 103 104 101 106 112 103
184 187 179 176 192 194 191 201 193 184 193 205 230 233 226 169 212 297 16 40 73 64 79 80 85 87 90 100 112 108 108 109 98 107 111 95 93 97 89 97 110 115 130
185 186 178 188 179 180 206 185 184 193 199 201 205 246 233 185 154 172 199 212 186 162 157 145 151 160 162 149 138 126 123 126 121 120 114 117 116 111 111 119 119 122 127
187 185 180 178 182 170 170 181 189 218 216 220 187 191 189 188 201 205 208 211 180 169 159 134 135 137 117 107 121 147 155 166 161 149 140 137 136 134 130 135 139 126 106
183 184 184 182 178 187 185 188 192 188 201 209 195 232 223 196 188 207 207 171 148 161 151 150 159 159 157 138 116 98 108 131 151 148 137 137 133 131 127 124 119 99 114
188 182 183 180 178 192 189 188 197 192 191 196 202 191 207 208 201 200 195 175 171 162 177 171 170 175 177 167 167 164 166 153 146 139 127 126 134 136 131 125 124 115 115
178 181 176 164 170 176 193 188 197 193 198 200 196 195 197 202 205 179 180 180 178 176 174 173 179 182 174 172 169 162 149 146 142 135 132 135 141 136 134 133 136 132 132